Time,TemperatureF,DewpointF,PressureIn,WindDirection,WindDirectionDegrees,WindSpeedMPH,WindSpeedGustMPH,Humidity,HourlyPrecipIn,Conditions,Clouds,dailyrainin,SoftwareType,DateUTC
2013-02-09 00:00:00,63.1,59.5,30.04,ESE,112,7.0,7.0,88,0.00,,,0.00,Wunderground v.1.15,2013-02-09 06:00:00,
2013-02-09 00:10:00,63.2,59.6,30.03,ENE,73,6.0,7.0,88,0.00,,,0.00,Wunderground v.1.15,2013-02-09 06:10:00,
2013-02-09 00:15:00,63.1,59.5,30.03,East,79,7.0,8.0,88,0.00,,,0.00,Wunderground v.1.15,2013-02-09 06:15:00,
2013-02-09 00:20:00,63.1,59.5,30.03,ESE,102,7.0,7.0,88,0.00,,,0.00,Wunderground v.1.15,2013-02-09 06:20:00,
2013-02-09 00:30:00,63.2,59.6,30.03,East,96,7.0,12.0,88,0.00,,,0.00,Wunderground v.1.15,2013-02-09 06:30:00,
2013-02-09 00:35:00,63.2,59.6,30.03,East,79,8.0,12.0,88,0.00,,,0.00,Wunderground v.1.15,2013-02-09 06:35:00,
2013-02-09 00:40:00,63.2,59.6,30.02,East,94,7.0,7.0,88,0.00,,,0.00,Wunderground v.1.15,2013-02-09 06:40:00,
2013-02-09 00:45:00,63.2,59.6,30.02,ESE,110,5.0,7.0,88,0.00,,,0.00,Wunderground v.1.15,2013-02-09 06:45:00,
2013-02-09 00:50:00,63.2,59.6,30.02,East,84,6.0,6.0,88,0.00,,,0.00,Wunderground v.1.15,2013-02-09 06:50:00,
2013-02-09 00:55:00,63.2,59.6,30.02,East,82,6.0,6.0,88,0.00,,,0.00,Wunderground v.1.15,2013-02-09 06:55:00,
2013-02-09 01:00:00,63.3,59.7,30.02,SE,124,7.0,7.0,88,0.00,,,0.00,Wunderground v.1.15,2013-02-09 07:00:00,
2013-02-09 01:10:00,63.3,59.7,30.02,SE,131,7.0,7.0,88,0.00,,,0.00,Wunderground v.1.15,2013-02-09 07:10:00,
2013-02-09 01:15:00,63.4,59.8,30.01,ESE,111,7.0,8.0,88,0.00,,,0.00,Wunderground v.1.15,2013-02-09 07:15:00,
2013-02-09 01:20:00,63.4,59.8,30.01,ESE,104,7.0,13.0,88,0.00,,,0.00,Wunderground v.1.15,2013-02-09 07:20:00,
2013-02-09 01:25:00,63.4,59.5,30.02,ESE,111,7.0,13.0,87,0.00,,,0.00,Wunderground v.1.15,2013-02-09 07:25:00,
2013-02-09 01:35:00,63.4,59.5,30.02,ESE,122,6.0,8.0,87,0.00,,,0.00,Wunderground v.1.15,2013-02-09 07:35:00,
2013-02-09 01:40:00,63.4,59.1,30.02,ESE,107,7.0,7.0,86,0.00,,,0.00,Wunderground v.1.15,2013-02-09 07:40:00,
2013-02-09 01:45:00,63.5,59.6,30.02,ESE,107,6.0,7.0,87,0.00,,,0.00,Wunderground v.1.15,2013-02-09 07:45:00,
2013-02-09 01:50:00,63.6,59.7,30.02,ESE,123,6.0,6.0,87,0.00,,,0.00,Wunderground v.1.15,2013-02-09 07:50:00,
2013-02-09 01:55:00,63.6,59.3,30.02,ENE,75,6.0,8.0,86,0.00,,,0.00,Wunderground v.1.15,2013-02-09 07:55:00,
2013-02-09 02:00:00,63.7,59.8,30.02,SE,143,6.0,6.0,87,0.00,,,0.00,Wunderground v.1.15,2013-02-09 08:00:00,
2013-02-09 02:10:00,63.5,59.6,30.01,ESE,106,5.0,5.0,87,0.00,,,0.00,Wunderground v.1.15,2013-02-09 08:10:00,
2013-02-09 02:15:00,63.4,59.5,30.01,ESE,107,5.0,8.0,87,0.00,,,0.00,Wunderground v.1.15,2013-02-09 08:15:00,
2013-02-09 02:20:00,63.4,59.5,30.01,ESE,107,5.0,5.0,87,0.00,,,0.00,Wunderground v.1.15,2013-02-09 08:20:00,
2013-02-09 02:25:00,63.5,59.6,30.01,East,91,5.0,6.0,87,0.00,,,0.00,Wunderground v.1.15,2013-02-09 08:25:00,
2013-02-09 02:30:00,63.6,59.7,30.01,ESE,117,5.0,5.0,87,0.00,,,0.00,Wunderground v.1.15,2013-02-09 08:30:00,
2013-02-09 02:40:00,63.8,59.5,30.00,ESE,113,5.0,5.0,86,0.00,,,0.00,Wunderground v.1.15,2013-02-09 08:40:00,
2013-02-09 02:45:00,63.8,59.5,30.00,East,84,5.0,5.0,86,0.00,,,0.00,Wunderground v.1.15,2013-02-09 08:45:00,
2013-02-09 02:50:00,63.9,59.6,30.00,ENE,77,5.0,5.0,86,0.00,,,0.00,Wunderground v.1.15,2013-02-09 08:50:00,
2013-02-09 02:55:00,63.9,59.6,30.00,East,86,5.0,8.0,86,0.00,,,0.00,Wunderground v.1.15,2013-02-09 08:55:00,
2013-02-09 03:00:00,64.0,59.7,30.00,ESE,102,5.0,5.0,86,0.00,,,0.00,Wunderground v.1.15,2013-02-09 09:00:00,
2013-02-09 03:15:00,64.4,60.1,30.00,East,80,4.0,6.0,86,0.00,,,0.00,Wunderground v.1.15,2013-02-09 09:15:00,
2013-02-09 03:20:00,64.5,60.2,29.99,ESE,121,4.0,6.0,86,0.00,,,0.00,Wunderground v.1.15,2013-02-09 09:20:00,
2013-02-09 03:25:00,64.6,60.0,29.99,East,84,6.0,6.0,85,0.00,,,0.00,Wunderground v.1.15,2013-02-09 09:25:00,
2013-02-09 03:30:00,64.6,60.3,29.99,ESE,105,6.0,6.0,86,0.00,,,0.00,Wunderground v.1.15,2013-02-09 09:30:00,
2013-02-09 03:35:00,64.6,60.3,29.99,ENE,74,6.0,6.0,86,0.00,,,0.00,Wunderground v.1.15,2013-02-09 09:35:00,
2013-02-09 03:45:00,64.6,60.3,29.99,East,85,5.0,6.0,86,0.00,,,0.00,Wunderground v.1.15,2013-02-09 09:45:00,
2013-02-09 03:50:00,64.7,60.4,29.99,East,86,5.0,5.0,86,0.00,,,0.00,Wunderground v.1.15,2013-02-09 09:50:00,
2013-02-09 03:55:00,64.7,60.4,29.98,East,98,5.0,5.0,86,0.00,,,0.00,Wunderground v.1.15,2013-02-09 09:55:00,
2013-02-09 04:00:00,64.7,60.7,29.98,East,86,5.0,9.0,87,0.00,,,0.00,Wunderground v.1.15,2013-02-09 10:00:00,
2013-02-09 04:10:00,64.9,60.9,29.98,East,89,5.0,6.0,87,0.00,,,0.00,Wunderground v.1.15,2013-02-09 10:10:00,
2013-02-09 04:15:00,64.9,60.9,29.99,ENE,76,5.0,7.0,87,0.00,,,0.00,Wunderground v.1.15,2013-02-09 10:15:00,
2013-02-09 04:20:00,65.0,61.0,29.98,East,89,6.0,6.0,87,0.00,,,0.00,Wunderground v.1.15,2013-02-09 10:20:00,
2013-02-09 04:25:00,65.0,61.0,29.98,ENE,67,5.0,6.0,87,0.00,,,0.00,Wunderground v.1.15,2013-02-09 10:25:00,
2013-02-09 04:30:00,65.0,61.0,29.98,East,90,6.0,6.0,87,0.00,,,0.00,Wunderground v.1.15,2013-02-09 10:30:00,
2013-02-09 04:35:00,65.0,60.7,29.98,ENE,74,5.0,6.0,86,0.00,,,0.00,Wunderground v.1.15,2013-02-09 10:35:00,
2013-02-09 04:40:00,65.1,60.8,29.98,East,96,5.0,7.0,86,0.00,,,0.00,Wunderground v.1.15,2013-02-09 10:40:00,
2013-02-09 04:50:00,65.1,61.1,29.98,East,82,5.0,6.0,87,0.00,,,0.00,Wunderground v.1.15,2013-02-09 10:50:00,
2013-02-09 04:55:00,65.1,61.1,29.98,East,94,5.0,6.0,87,0.00,,,0.00,Wunderground v.1.15,2013-02-09 10:55:00,
2013-02-09 05:00:00,65.1,61.1,29.98,East,99,5.0,5.0,87,0.00,,,0.00,Wunderground v.1.15,2013-02-09 11:00:00,
2013-02-09 05:10:00,65.1,61.1,29.98,ENE,75,4.0,4.0,87,0.00,,,0.00,Wunderground v.1.15,2013-02-09 11:10:00,
2013-02-09 05:20:00,65.1,61.1,29.98,East,98,4.0,4.0,87,0.00,,,0.00,Wunderground v.1.15,2013-02-09 11:20:00,
2013-02-09 05:25:00,65.1,61.1,29.98,ENE,66,4.0,4.0,87,0.00,,,0.00,Wunderground v.1.15,2013-02-09 11:25:00,
2013-02-09 05:30:00,65.0,61.0,29.98,NE,50,4.0,4.0,87,0.00,,,0.00,Wunderground v.1.15,2013-02-09 11:30:00,
2013-02-09 05:35:00,65.0,61.0,29.98,East,79,5.0,5.0,87,0.00,,,0.00,Wunderground v.1.15,2013-02-09 11:35:00,
2013-02-09 05:40:00,65.1,61.1,29.98,East,82,5.0,5.0,87,0.00,,,0.00,Wunderground v.1.15,2013-02-09 11:40:00,
2013-02-09 05:45:00,65.1,61.5,29.98,ENE,72,5.0,5.0,88,0.00,,,0.00,Wunderground v.1.15,2013-02-09 11:45:00,
2013-02-09 05:55:00,65.1,61.5,29.98,ENE,78,5.0,5.0,88,0.00,,,0.00,Wunderground v.1.15,2013-02-09 11:55:00,
2013-02-09 06:00:00,65.1,61.5,29.98,East,88,4.0,4.0,88,0.00,,,0.00,Wunderground v.1.15,2013-02-09 12:00:00,
2013-02-09 06:10:00,65.1,61.5,29.98,East,79,4.0,8.0,88,0.00,,,0.00,Wunderground v.1.15,2013-02-09 12:10:00,
2013-02-09 06:15:00,65.1,61.5,29.98,ENE,58,4.0,8.0,88,0.00,,,0.00,Wunderground v.1.15,2013-02-09 12:15:00,
2013-02-09 06:25:00,64.9,61.6,29.98,East,80,4.0,6.0,89,0.00,,,0.00,Wunderground v.1.15,2013-02-09 12:25:00,
2013-02-09 06:30:00,64.9,61.6,29.98,NE,50,4.0,4.0,89,0.00,,,0.00,Wunderground v.1.15,2013-02-09 12:30:00,
2013-02-09 06:35:00,64.9,61.9,29.98,ENE,76,3.0,4.0,90,0.00,,,0.00,Wunderground v.1.15,2013-02-09 12:35:00,
2013-02-09 06:40:00,64.8,61.8,29.98,ENE,66,3.0,3.0,90,0.00,,,0.00,Wunderground v.1.15,2013-02-09 12:40:00,
2013-02-09 06:45:00,64.7,61.7,29.98,ENE,75,3.0,3.0,90,0.00,,,0.00,Wunderground v.1.15,2013-02-09 12:45:00,
2013-02-09 06:50:00,64.7,61.7,29.98,ENE,78,3.0,4.0,90,0.00,,,0.00,Wunderground v.1.15,2013-02-09 12:50:00,
2013-02-09 07:00:00,64.7,61.7,29.98,East,94,3.0,8.0,90,0.00,,,0.00,Wunderground v.1.15,2013-02-09 13:00:00,
2013-02-09 07:10:00,64.9,61.9,29.98,ENE,63,4.0,4.0,90,0.00,,,0.00,Wunderground v.1.15,2013-02-09 13:10:00,
2013-02-09 07:15:00,65.0,62.0,29.98,ENE,70,3.0,4.0,90,0.00,,,0.00,Wunderground v.1.15,2013-02-09 13:15:00,
2013-02-09 07:20:00,65.0,62.0,29.98,East,95,3.0,3.0,90,0.00,,,0.00,Wunderground v.1.15,2013-02-09 13:20:00,
2013-02-09 07:25:00,65.1,62.1,29.98,East,93,3.0,3.0,90,0.00,,,0.00,Wunderground v.1.15,2013-02-09 13:25:00,
2013-02-09 07:30:00,65.3,62.3,29.98,ENE,68,3.0,3.0,90,0.00,,,0.00,Wunderground v.1.15,2013-02-09 13:30:00,
2013-02-09 07:40:00,65.4,62.4,29.98,East,93,2.0,4.0,90,0.00,,,0.00,Wunderground v.1.15,2013-02-09 13:40:00,
2013-02-09 07:45:00,65.5,62.8,29.98,East,82,2.0,4.0,91,0.00,,,0.00,Wunderground v.1.15,2013-02-09 13:45:00,
2013-02-09 07:50:00,65.7,62.7,29.98,East,79,3.0,5.0,90,0.00,,,0.00,Wunderground v.1.15,2013-02-09 13:50:00,
2013-02-09 07:55:00,65.8,62.8,29.98,East,92,4.0,5.0,90,0.00,,,0.00,Wunderground v.1.15,2013-02-09 13:55:00,
2013-02-09 08:00:00,65.9,62.9,29.98,ESE,117,4.0,9.0,90,0.00,,,0.00,Wunderground v.1.15,2013-02-09 14:00:00,
2013-02-09 08:10:00,66.1,63.1,29.97,ENE,78,5.0,5.0,90,0.00,,,0.00,Wunderground v.1.15,2013-02-09 14:10:00,
2013-02-09 08:15:00,66.2,63.2,29.97,East,82,5.0,5.0,90,0.00,,,0.00,Wunderground v.1.15,2013-02-09 14:15:00,
2013-02-09 08:20:00,66.2,63.2,29.97,East,99,6.0,7.0,90,0.00,,,0.00,Wunderground v.1.15,2013-02-09 14:20:00,
2013-02-09 08:25:00,66.4,63.4,29.97,ENE,76,6.0,7.0,90,0.00,,,0.00,Wunderground v.1.15,2013-02-09 14:25:00,
2013-02-09 08:30:00,66.4,63.4,29.97,SE,128,5.0,6.0,90,0.00,,,0.00,Wunderground v.1.15,2013-02-09 14:30:00,
2013-02-09 08:40:00,66.5,63.5,29.98,East,99,6.0,7.0,90,0.00,,,0.00,Wunderground v.1.15,2013-02-09 14:40:00,
2013-02-09 08:45:00,66.5,63.8,29.98,East,93,5.0,7.0,91,0.00,,,0.00,Wunderground v.1.15,2013-02-09 14:45:00,
2013-02-09 08:50:00,66.5,63.8,29.98,ESE,110,5.0,5.0,91,0.00,,,0.00,Wunderground v.1.15,2013-02-09 14:50:00,
2013-02-09 08:55:00,66.4,63.7,29.98,ESE,122,4.0,8.0,91,0.00,,,0.00,Wunderground v.1.15,2013-02-09 14:55:00,
2013-02-09 09:00:00,66.4,63.7,29.98,SE,125,5.0,8.0,91,0.00,,,0.00,Wunderground v.1.15,2013-02-09 15:00:00,
2013-02-09 09:10:00,66.5,63.8,29.98,SE,125,4.0,4.0,91,0.00,,,0.00,Wunderground v.1.15,2013-02-09 15:10:00,
2013-02-09 09:15:00,66.6,63.9,29.98,ENE,78,4.0,4.0,91,0.00,,,0.00,Wunderground v.1.15,2013-02-09 15:15:00,
2013-02-09 09:20:00,66.7,64.0,29.98,ESE,109,5.0,5.0,91,0.00,,,0.00,Wunderground v.1.15,2013-02-09 15:20:00,
2013-02-09 09:25:00,66.7,64.0,29.98,East,86,5.0,6.0,91,0.00,,,0.00,Wunderground v.1.15,2013-02-09 15:25:00,
2013-02-09 09:30:00,66.7,64.0,29.99,ESE,119,5.0,5.0,91,0.00,,,0.00,Wunderground v.1.15,2013-02-09 15:30:00,
2013-02-09 09:35:00,66.7,64.0,29.99,SE,133,4.0,5.0,91,0.00,,,0.00,Wunderground v.1.15,2013-02-09 15:35:00,
2013-02-09 09:45:00,66.5,64.1,29.99,ESE,105,3.0,3.0,92,0.00,,,0.00,Wunderground v.1.15,2013-02-09 15:45:00,
2013-02-09 09:50:00,66.5,64.4,29.98,ESE,122,4.0,5.0,93,0.00,,,0.00,Wunderground v.1.15,2013-02-09 15:50:00,
2013-02-09 09:55:00,66.6,64.5,29.99,East,99,5.0,5.0,93,0.00,,,0.00,Wunderground v.1.15,2013-02-09 15:55:00,
2013-02-09 10:00:00,66.6,64.5,29.99,East,90,5.0,5.0,93,0.00,,,0.00,Wunderground v.1.15,2013-02-09 16:00:00,
2013-02-09 10:10:00,66.7,64.6,29.99,ESE,111,5.0,5.0,93,0.00,,,0.00,Wunderground v.1.15,2013-02-09 16:10:00,
2013-02-09 10:15:00,66.8,64.7,29.99,ESE,117,5.0,5.0,93,0.00,,,0.00,Wunderground v.1.15,2013-02-09 16:15:00,
2013-02-09 10:20:00,66.8,64.4,29.99,East,89,5.0,5.0,92,0.00,,,0.00,Wunderground v.1.15,2013-02-09 16:20:00,
2013-02-09 10:25:00,66.9,64.5,29.99,East,91,5.0,5.0,92,0.00,,,0.00,Wunderground v.1.15,2013-02-09 16:25:00,
2013-02-09 10:30:00,67.0,64.6,29.99,ENE,75,5.0,5.0,92,0.00,,,0.00,Wunderground v.1.15,2013-02-09 16:30:00,
2013-02-09 10:35:00,67.0,64.6,29.99,East,98,5.0,6.0,92,0.00,,,0.00,Wunderground v.1.15,2013-02-09 16:35:00,
2013-02-09 10:40:00,67.0,64.6,29.99,East,93,5.0,8.0,92,0.00,,,0.00,Wunderground v.1.15,2013-02-09 16:40:00,
2013-02-09 10:50:00,67.2,65.1,29.99,East,89,6.0,6.0,93,0.00,,,0.00,Wunderground v.1.15,2013-02-09 16:50:00,
2013-02-09 10:55:00,67.3,65.2,29.98,SE,131,4.0,6.0,93,0.00,,,0.00,Wunderground v.1.15,2013-02-09 16:55:00,
2013-02-09 11:00:00,67.5,65.4,29.98,ESE,103,4.0,4.0,93,0.00,,,0.00,Wunderground v.1.15,2013-02-09 17:00:00,
2013-02-09 11:10:00,67.7,65.6,29.97,SE,139,4.0,4.0,93,0.00,,,0.00,Wunderground v.1.15,2013-02-09 17:10:00,
2013-02-09 11:20:00,67.9,65.8,29.97,East,95,4.0,4.0,93,0.00,,,0.01,Wunderground v.1.15,2013-02-09 17:20:00,
2013-02-09 11:25:00,67.9,65.8,29.97,SE,126,4.0,4.0,93,0.00,,,0.01,Wunderground v.1.15,2013-02-09 17:25:00,
2013-02-09 11:30:00,68.0,65.9,29.97,East,99,3.0,3.0,93,0.00,,,0.01,Wunderground v.1.15,2013-02-09 17:30:00,
2013-02-09 11:35:00,68.0,65.9,29.96,SSW,203,3.0,3.0,93,0.00,,,0.01,Wunderground v.1.15,2013-02-09 17:35:00,
2013-02-09 11:40:00,68.2,66.1,29.96,SE,135,4.0,4.0,93,0.00,,,0.01,Wunderground v.1.15,2013-02-09 17:40:00,
2013-02-09 11:45:00,68.5,66.4,29.96,ENE,70,5.0,7.0,93,0.00,,,0.01,Wunderground v.1.15,2013-02-09 17:45:00,
2013-02-09 11:55:00,68.9,66.5,29.95,SE,140,6.0,6.0,92,0.00,,,0.01,Wunderground v.1.15,2013-02-09 17:55:00,
2013-02-09 12:00:00,69.1,66.7,29.95,ESE,113,6.0,7.0,92,0.00,,,0.01,Wunderground v.1.15,2013-02-09 18:00:00,
2013-02-09 12:10:00,69.4,66.7,29.94,ESE,116,7.0,10.0,91,0.00,,,0.01,Wunderground v.1.15,2013-02-09 18:10:00,
2013-02-09 12:15:00,69.7,67.3,29.94,SSE,159,6.0,10.0,92,0.00,,,0.01,Wunderground v.1.15,2013-02-09 18:15:00,
2013-02-09 12:25:00,70.4,67.3,29.93,SE,136,5.0,11.0,90,0.00,,,0.01,Wunderground v.1.15,2013-02-09 18:25:00,
2013-02-09 12:30:00,70.5,67.1,29.92,ESE,112,8.0,8.0,89,0.00,,,0.01,Wunderground v.1.15,2013-02-09 18:30:00,
2013-02-09 12:35:00,70.8,67.4,29.92,SE,143,9.0,10.0,89,0.00,,,0.01,Wunderground v.1.15,2013-02-09 18:35:00,
2013-02-09 12:40:00,70.8,67.4,29.92,ESE,122,8.0,8.0,89,0.00,,,0.01,Wunderground v.1.15,2013-02-09 18:40:00,
2013-02-09 12:45:00,70.9,67.2,29.91,East,100,7.0,9.0,88,0.00,,,0.01,Wunderground v.1.15,2013-02-09 18:45:00,
2013-02-09 12:50:00,71.0,67.3,29.91,SSE,156,7.0,7.0,88,0.00,,,0.01,Wunderground v.1.15,2013-02-09 18:50:00,
2013-02-09 13:00:00,71.3,67.6,29.90,SSE,150,7.0,11.0,88,0.00,,,0.01,Wunderground v.1.15,2013-02-09 19:00:00,
2013-02-09 13:10:00,71.6,67.9,29.90,ESE,105,8.0,10.0,88,0.00,,,0.01,Wunderground v.1.15,2013-02-09 19:10:00,
2013-02-09 13:15:00,71.6,67.5,29.89,East,99,9.0,10.0,87,0.00,,,0.01,Wunderground v.1.15,2013-02-09 19:15:00,
2013-02-09 13:20:00,71.8,67.7,29.89,SE,131,10.0,10.0,87,0.00,,,0.01,Wunderground v.1.15,2013-02-09 19:20:00,
2013-02-09 13:25:00,71.9,67.8,29.88,NE,44,8.0,10.0,87,0.00,,,0.01,Wunderground v.1.15,2013-02-09 19:25:00,
2013-02-09 13:30:00,71.9,67.8,29.88,SE,133,7.0,7.0,87,0.00,,,0.01,Wunderground v.1.15,2013-02-09 19:30:00,
2013-02-09 13:35:00,71.9,67.8,29.88,SE,138,8.0,8.0,87,0.00,,,0.01,Wunderground v.1.15,2013-02-09 19:35:00,
2013-02-09 13:40:00,71.8,67.7,29.87,South,187,7.0,7.0,87,0.00,,,0.01,Wunderground v.1.15,2013-02-09 19:40:00,
2013-02-09 13:45:00,71.9,67.8,29.87,SSE,156,7.0,7.0,87,0.00,,,0.01,Wunderground v.1.15,2013-02-09 19:45:00,
2013-02-09 13:50:00,72.0,67.6,29.87,SSW,201,7.0,7.0,86,0.00,,,0.01,Wunderground v.1.15,2013-02-09 19:50:00,
2013-02-09 13:55:00,72.0,67.6,29.86,ESE,103,8.0,8.0,86,0.00,,,0.01,Wunderground v.1.15,2013-02-09 19:55:00,
2013-02-09 14:00:00,72.0,67.6,29.86,SSE,155,7.0,7.0,86,0.00,,,0.01,Wunderground v.1.15,2013-02-09 20:00:00,
2013-02-09 14:10:00,71.9,67.8,29.86,SSE,150,7.0,7.0,87,0.00,,,0.01,Wunderground v.1.15,2013-02-09 20:10:00,
2013-02-09 14:15:00,71.9,67.8,29.86,SE,139,7.0,7.0,87,0.00,,,0.01,Wunderground v.1.15,2013-02-09 20:15:00,
2013-02-09 14:20:00,72.0,67.9,29.85,SE,131,7.0,7.0,87,0.00,,,0.01,Wunderground v.1.15,2013-02-09 20:20:00,
2013-02-09 14:25:00,72.0,67.6,29.85,ESE,112,7.0,9.0,86,0.00,,,0.01,Wunderground v.1.15,2013-02-09 20:25:00,
2013-02-09 14:30:00,71.9,67.8,29.85,ESE,121,8.0,8.0,87,0.00,,,0.01,Wunderground v.1.15,2013-02-09 20:30:00,
2013-02-09 14:35:00,72.0,67.9,29.84,ESE,117,8.0,8.0,87,0.00,,,0.01,Wunderground v.1.15,2013-02-09 20:35:00,
2013-02-09 14:40:00,72.0,67.9,29.84,South,169,8.0,9.0,87,0.00,,,0.01,Wunderground v.1.15,2013-02-09 20:40:00,
2013-02-09 14:45:00,72.0,67.9,29.84,SE,139,8.0,9.0,87,0.00,,,0.01,Wunderground v.1.15,2013-02-09 20:45:00,
2013-02-09 14:50:00,72.0,67.9,29.84,SSW,210,8.0,8.0,87,0.00,,,0.01,Wunderground v.1.15,2013-02-09 20:50:00,
2013-02-09 14:55:00,72.0,67.9,29.83,SE,138,8.0,8.0,87,0.00,,,0.01,Wunderground v.1.15,2013-02-09 20:55:00,
2013-02-09 15:00:00,72.1,68.0,29.83,SSE,153,8.0,8.0,87,0.00,,,0.01,Wunderground v.1.15,2013-02-09 21:00:00,
2013-02-09 15:10:00,72.2,68.1,29.82,SE,129,10.0,11.0,87,0.00,,,0.01,Wunderground v.1.15,2013-02-09 21:10:00,
2013-02-09 15:15:00,72.4,68.3,29.82,SE,139,9.0,11.0,87,0.00,,,0.01,Wunderground v.1.15,2013-02-09 21:15:00,
2013-02-09 15:20:00,72.6,68.5,29.82,SSE,160,8.0,8.0,87,0.00,,,0.01,Wunderground v.1.15,2013-02-09 21:20:00,
2013-02-09 15:25:00,72.4,68.3,29.81,ESE,118,9.0,13.0,87,0.00,,,0.01,Wunderground v.1.15,2013-02-09 21:25:00,
2013-02-09 15:30:00,72.4,68.6,29.81,ESE,113,9.0,9.0,88,0.00,,,0.01,Wunderground v.1.15,2013-02-09 21:30:00,
2013-02-09 15:35:00,72.3,68.5,29.81,SE,131,8.0,11.0,88,0.00,,,0.01,Wunderground v.1.15,2013-02-09 21:35:00,
2013-02-09 15:40:00,72.3,68.5,29.81,SE,131,8.0,8.0,88,0.00,,,0.01,Wunderground v.1.15,2013-02-09 21:40:00,
2013-02-09 15:45:00,72.3,68.5,29.81,SE,142,8.0,17.0,88,0.00,,,0.01,Wunderground v.1.15,2013-02-09 21:45:00,
2013-02-09 15:50:00,72.2,68.4,29.81,East,87,8.0,10.0,88,0.00,,,0.01,Wunderground v.1.15,2013-02-09 21:50:00,
2013-02-09 15:55:00,72.3,68.5,29.81,SSE,158,9.0,14.0,88,0.00,,,0.01,Wunderground v.1.15,2013-02-09 21:55:00,
2013-02-09 16:00:00,72.5,68.7,29.80,NNE,16,8.0,8.0,88,0.00,,,0.01,Wunderground v.1.15,2013-02-09 22:00:00,
2013-02-09 16:10:00,72.9,68.8,29.80,ESE,118,9.0,11.0,87,0.00,,,0.01,Wunderground v.1.15,2013-02-09 22:10:00,
2013-02-09 16:15:00,72.9,68.8,29.80,SSE,166,9.0,11.0,87,0.00,,,0.01,Wunderground v.1.15,2013-02-09 22:15:00,
2013-02-09 16:20:00,72.7,68.6,29.79,South,170,10.0,11.0,87,0.00,,,0.01,Wunderground v.1.15,2013-02-09 22:20:00,
2013-02-09 16:25:00,72.5,68.7,29.79,SSE,149,10.0,11.0,88,0.00,,,0.01,Wunderground v.1.15,2013-02-09 22:25:00,
2013-02-09 16:30:00,72.4,68.6,29.79,ESE,122,10.0,10.0,88,0.00,,,0.01,Wunderground v.1.15,2013-02-09 22:30:00,
2013-02-09 16:35:00,72.3,68.9,29.79,ESE,116,10.0,10.0,89,0.00,,,0.01,Wunderground v.1.15,2013-02-09 22:35:00,
2013-02-09 16:40:00,72.2,68.8,29.79,ESE,108,10.0,10.0,89,0.00,,,0.01,Wunderground v.1.15,2013-02-09 22:40:00,
2013-02-09 16:50:00,72.2,68.8,29.78,SSE,158,8.0,8.0,89,0.00,,,0.01,Wunderground v.1.15,2013-02-09 22:50:00,
2013-02-09 16:55:00,72.3,68.9,29.78,SSE,147,8.0,11.0,89,0.00,,,0.01,Wunderground v.1.15,2013-02-09 22:55:00,
2013-02-09 17:00:00,72.3,68.9,29.78,SE,140,8.0,8.0,89,0.00,,,0.01,Wunderground v.1.15,2013-02-09 23:00:00,
2013-02-09 17:10:00,72.3,68.9,29.78,SE,138,8.0,8.0,89,0.00,,,0.01,Wunderground v.1.15,2013-02-09 23:10:00,
2013-02-09 17:20:00,72.0,68.6,29.78,SSE,155,8.0,8.0,89,0.00,,,0.01,Wunderground v.1.15,2013-02-09 23:20:00,
2013-02-09 17:25:00,71.9,68.8,29.77,SSE,160,9.0,14.0,90,0.00,,,0.01,Wunderground v.1.15,2013-02-09 23:25:00,
2013-02-09 17:30:00,71.8,68.7,29.77,SW,218,9.0,9.0,90,0.00,,,0.01,Wunderground v.1.15,2013-02-09 23:30:00,
2013-02-09 17:35:00,71.7,68.6,29.77,South,191,10.0,10.0,90,0.00,,,0.01,Wunderground v.1.15,2013-02-09 23:35:00,
2013-02-09 17:40:00,71.6,68.8,29.77,ESE,113,9.0,9.0,91,0.00,,,0.01,Wunderground v.1.15,2013-02-09 23:40:00,
2013-02-09 17:45:00,71.5,68.7,29.77,South,188,8.0,14.0,91,0.00,,,0.01,Wunderground v.1.15,2013-02-09 23:45:00,
2013-02-09 17:55:00,71.4,68.6,29.77,SE,127,8.0,17.0,91,0.00,,,0.01,Wunderground v.1.15,2013-02-09 23:55:00,
2013-02-09 18:00:00,71.4,68.6,29.77,SE,132,9.0,9.0,91,0.00,,,0.01,Wunderground v.1.15,2013-02-10 00:00:00,
2013-02-09 18:10:00,71.2,68.4,29.76,SE,124,10.0,10.0,91,0.00,,,0.01,Wunderground v.1.15,2013-02-10 00:10:00,
2013-02-09 18:15:00,71.2,68.4,29.76,SSE,162,9.0,10.0,91,0.00,,,0.01,Wunderground v.1.15,2013-02-10 00:15:00,
2013-02-09 18:25:00,71.1,68.7,29.76,South,183,9.0,11.0,92,0.00,,,0.01,Wunderground v.1.15,2013-02-10 00:25:00,
2013-02-09 18:30:00,71.1,68.7,29.76,South,179,9.0,9.0,92,0.00,,,0.01,Wunderground v.1.15,2013-02-10 00:30:00,
2013-02-09 18:35:00,71.0,68.6,29.76,SSE,158,9.0,9.0,92,0.00,,,0.01,Wunderground v.1.15,2013-02-10 00:35:00,
2013-02-09 18:40:00,71.0,68.6,29.76,SSE,153,9.0,9.0,92,0.00,,,0.01,Wunderground v.1.15,2013-02-10 00:40:00,
2013-02-09 18:45:00,71.0,68.6,29.77,ENE,72,10.0,12.0,92,0.00,,,0.01,Wunderground v.1.15,2013-02-10 00:45:00,
2013-02-09 18:50:00,70.9,68.5,29.77,SSW,198,9.0,9.0,92,0.00,,,0.01,Wunderground v.1.15,2013-02-10 00:50:00,
2013-02-09 19:00:00,70.9,68.5,29.77,ESE,110,9.0,9.0,92,0.00,,,0.01,Wunderground v.1.15,2013-02-10 01:00:00,
2013-02-09 19:10:00,70.8,68.4,29.77,SSE,148,8.0,8.0,92,0.00,,,0.01,Wunderground v.1.15,2013-02-10 01:10:00,
2013-02-09 19:15:00,70.9,68.5,29.77,SSE,167,8.0,16.0,92,0.00,,,0.01,Wunderground v.1.15,2013-02-10 01:15:00,
2013-02-09 19:20:00,70.9,68.5,29.77,South,181,8.0,8.0,92,0.00,,,0.01,Wunderground v.1.15,2013-02-10 01:20:00,
2013-02-09 19:30:00,71.0,68.6,29.77,SW,226,8.0,9.0,92,0.00,,,0.01,Wunderground v.1.15,2013-02-10 01:30:00,
2013-02-09 19:35:00,71.1,68.7,29.77,SE,146,8.0,9.0,92,0.00,,,0.01,Wunderground v.1.15,2013-02-10 01:35:00,
2013-02-09 19:40:00,71.2,68.8,29.78,SSE,163,9.0,10.0,92,0.00,,,0.01,Wunderground v.1.15,2013-02-10 01:40:00,
2013-02-09 19:45:00,71.2,68.8,29.78,SE,128,10.0,15.0,92,0.00,,,0.01,Wunderground v.1.15,2013-02-10 01:45:00,
2013-02-09 19:50:00,71.2,68.8,29.78,ENE,75,9.0,9.0,92,0.00,,,0.01,Wunderground v.1.15,2013-02-10 01:50:00,
2013-02-09 19:55:00,71.2,68.8,29.78,SE,125,8.0,11.0,92,0.00,,,0.01,Wunderground v.1.15,2013-02-10 01:55:00,
2013-02-09 20:00:00,71.2,68.8,29.78,South,185,9.0,11.0,92,0.00,,,0.01,Wunderground v.1.15,2013-02-10 02:00:00,
2013-02-09 20:10:00,71.2,69.1,29.78,SE,139,8.0,8.0,93,0.00,,,0.01,Wunderground v.1.15,2013-02-10 02:10:00,
2013-02-09 20:15:00,71.2,69.1,29.78,SSE,162,9.0,12.0,93,0.00,,,0.01,Wunderground v.1.15,2013-02-10 02:15:00,
2013-02-09 20:20:00,71.2,69.1,29.78,South,177,11.0,11.0,93,0.00,,,0.01,Wunderground v.1.15,2013-02-10 02:20:00,
2013-02-09 20:25:00,71.2,69.1,29.78,SE,139,10.0,11.0,93,0.00,,,0.01,Wunderground v.1.15,2013-02-10 02:25:00,
2013-02-09 20:35:00,71.1,69.0,29.79,SE,131,9.0,11.0,93,0.00,,,0.01,Wunderground v.1.15,2013-02-10 02:35:00,
2013-02-09 20:40:00,71.1,69.0,29.79,South,190,8.0,8.0,93,0.00,,,0.01,Wunderground v.1.15,2013-02-10 02:40:00,
2013-02-09 20:45:00,71.1,69.0,29.79,ESE,123,8.0,8.0,93,0.00,,,0.01,Wunderground v.1.15,2013-02-10 02:45:00,
2013-02-09 20:50:00,71.1,69.0,29.80,SSE,162,7.0,7.0,93,0.00,,,0.01,Wunderground v.1.15,2013-02-10 02:50:00,
2013-02-09 20:55:00,71.1,69.0,29.80,South,181,6.0,9.0,93,0.00,,,0.01,Wunderground v.1.15,2013-02-10 02:55:00,
2013-02-09 21:00:00,71.0,68.9,29.80,South,180,7.0,12.0,93,0.00,,,0.01,Wunderground v.1.15,2013-02-10 03:00:00,
2013-02-09 21:10:00,71.0,68.9,29.81,SSE,166,7.0,8.0,93,0.00,,,0.01,Wunderground v.1.15,2013-02-10 03:10:00,
2013-02-09 21:15:00,71.0,68.9,29.81,South,185,7.0,8.0,93,0.00,,,0.01,Wunderground v.1.15,2013-02-10 03:15:00,
2013-02-09 21:20:00,71.0,68.9,29.81,South,173,7.0,10.0,93,0.00,,,0.01,Wunderground v.1.15,2013-02-10 03:20:00,
2013-02-09 21:25:00,70.9,68.8,29.81,South,174,7.0,10.0,93,0.00,,,0.01,Wunderground v.1.15,2013-02-10 03:25:00,
2013-02-09 21:30:00,70.9,68.8,29.81,SE,134,6.0,6.0,93,0.00,,,0.01,Wunderground v.1.15,2013-02-10 03:30:00,
2013-02-09 21:40:00,70.9,68.8,29.81,SSE,153,9.0,9.0,93,0.00,,,0.01,Wunderground v.1.15,2013-02-10 03:40:00,
2013-02-09 21:45:00,70.9,68.8,29.81,SSE,153,8.0,9.0,93,0.00,,,0.01,Wunderground v.1.15,2013-02-10 03:45:00,
2013-02-09 21:50:00,70.9,68.8,29.81,SE,146,7.0,7.0,93,0.00,,,0.01,Wunderground v.1.15,2013-02-10 03:50:00,
2013-02-09 21:55:00,70.9,68.8,29.81,SSE,148,7.0,9.0,93,0.00,,,0.01,Wunderground v.1.15,2013-02-10 03:55:00,
2013-02-09 22:00:00,70.8,68.7,29.81,South,174,7.0,13.0,93,0.00,,,0.01,Wunderground v.1.15,2013-02-10 04:00:00,
2013-02-09 22:10:00,70.8,68.7,29.81,SSW,197,6.0,6.0,93,0.00,,,0.01,Wunderground v.1.15,2013-02-10 04:10:00,
2013-02-09 22:15:00,70.8,68.7,29.81,SSE,151,7.0,7.0,93,0.00,,,0.01,Wunderground v.1.15,2013-02-10 04:15:00,
2013-02-09 22:20:00,70.8,68.7,29.80,SSE,165,8.0,9.0,93,0.00,,,0.01,Wunderground v.1.15,2013-02-10 04:20:00,
2013-02-09 22:25:00,70.8,68.7,29.81,SSE,160,8.0,12.0,93,0.00,,,0.01,Wunderground v.1.15,2013-02-10 04:25:00,
2013-02-09 22:30:00,70.8,68.7,29.80,South,184,8.0,8.0,93,0.00,,,0.01,Wunderground v.1.15,2013-02-10 04:30:00,
2013-02-09 22:35:00,70.9,68.8,29.80,SE,139,8.0,8.0,93,0.00,,,0.01,Wunderground v.1.15,2013-02-10 04:35:00,
2013-02-09 22:40:00,70.9,68.8,29.80,SE,139,8.0,8.0,93,0.00,,,0.01,Wunderground v.1.15,2013-02-10 04:40:00,
2013-02-09 22:45:00,70.9,68.8,29.80,SSE,162,8.0,8.0,93,0.00,,,0.01,Wunderground v.1.15,2013-02-10 04:45:00,
2013-02-09 22:50:00,70.9,68.8,29.80,SSE,152,7.0,10.0,93,0.00,,,0.01,Wunderground v.1.15,2013-02-10 04:50:00,
2013-02-09 22:55:00,70.9,68.8,29.79,South,176,8.0,20.0,93,0.00,,,0.01,Wunderground v.1.15,2013-02-10 04:55:00,
2013-02-09 23:00:00,70.9,68.8,29.79,SSE,165,8.0,8.0,93,0.00,,,0.01,Wunderground v.1.15,2013-02-10 05:00:00,
2013-02-09 23:05:00,71.0,68.9,29.79,South,177,9.0,9.0,93,0.00,,,0.01,Wunderground v.1.15,2013-02-10 05:05:00,
2013-02-09 23:10:00,71.0,68.9,29.79,SE,140,9.0,9.0,93,0.00,,,0.01,Wunderground v.1.15,2013-02-10 05:10:00,
2013-02-09 23:20:00,71.0,68.9,29.79,SE,145,8.0,9.0,93,0.00,,,0.01,Wunderground v.1.15,2013-02-10 05:20:00,
2013-02-09 23:25:00,70.9,68.8,29.79,SSW,195,9.0,9.0,93,0.00,,,0.01,Wunderground v.1.15,2013-02-10 05:25:00,
2013-02-09 23:30:00,70.9,68.8,29.78,SSE,158,8.0,15.0,93,0.00,,,0.01,Wunderground v.1.15,2013-02-10 05:30:00,
2013-02-09 23:35:00,70.9,68.8,29.78,ESE,117,8.0,15.0,93,0.00,,,0.01,Wunderground v.1.15,2013-02-10 05:35:00,
2013-02-09 23:40:00,70.9,68.8,29.79,SSW,211,8.0,8.0,93,0.00,,,0.01,Wunderground v.1.15,2013-02-10 05:40:00,
2013-02-09 23:45:00,70.9,68.8,29.79,SE,127,8.0,8.0,93,0.00,,,0.01,Wunderground v.1.15,2013-02-10 05:45:00,
2013-02-09 23:50:00,70.9,68.8,29.79,SSE,149,8.0,8.0,93,0.00,,,0.01,Wunderground v.1.15,2013-02-10 05:50:00,
2013-02-09 23:55:00,70.9,68.8,29.79,South,190,8.0,8.0,93,0.00,,,0.01,Wunderground v.1.15,2013-02-10 05:55:00,